Terminal Aerodrome Forecast
Issued by NWS

Home | Current Version | Previous Version | Text Only | Print | Product List | Glossary On
Versions: 1 2 3 4 5 6 7 8 9 10 11 12 13 14 15 16 17 18 19 20 21 22
000
FTUS45 KFGZ 211100
TAFPRC
TAF
KPRC 211136Z 2112/2212 VRB03KT P6SM SCT100
     FM211800 20009KT P6SM VCTS BKN060CB OVC100
      TEMPO 2119/2123 VRB20G30KT 3SM TSRA OVC050CB
     FM212300 VRB05KT P6SM SCT050 BKN090
      TEMPO 2123/2203 VRB15G25KT 2SM TSRA BR OVC040CB=

USA.gov is the U.S. government's official web portal to all federal, state and local government web resources and services.